Flag for Kuwait Weather past 2 weeks in Kuwait City, Kuwait

Now
90 °F

Clear.


Feels Like: 89 °F
Forecast: 92 / 108 °F
Wind: No wind

Location: Kuwait International Airport

Current Time: Aug 1, 2015 at 7:06:48 AM

Latest Report: Aug 1, 2015 at 6:00 AM


Visibility: 4 mi

Pressure: 29.50 "Hg

Humidity: 36%

Dew point: 59 °F

Historic Weather in Kuwait City — Graph

°F

Kuwait City temperature yesterday

Maximum temperature yesterday: 118 °F (at 1:00 PM)
Minimum temperature yesterday: 95 °F (at 4:00 AM)
Average temperature yesterday: 104 °F

Past Weeks' High & Low Weather Summary

 TemperatureHumidityPressure
High122 °F (Jul 17, 2:00 PM)67% (Jul 23, 5:00 AM)29.56 "Hg (Jul 23, 5:00 AM)
Low84 °F (Jul 25, 6:00 AM)5% (Jul 17, 1:00 PM)29.33 "Hg (Jul 19, 6:00 PM)
Average104 °F17%29.45 "Hg
* Reported Jul 17 5:00 AM — Aug 1 5:00 AM, Kuwait City, Weather by CustomWeather, © 2015

Note: Actual official high and low records may vary slightly from our data, if they occured in-between our weather recording intervals... More about our weather records

Advertising

Kuwait City weather history for previous 24 hours

 ConditionsComfort  
Time TempWeatherWind HumidityBarometerVisibility
5:00 AM
Sat, Aug 1
90 °FClear.5 mph36%29.47 "Hg5 mi
4:00 AM90 °FClear.6 mph33%29.47 "Hg10 mi
3:00 AM93 °FClear.3 mph30%29.47 "Hg10 mi
2:00 AM95 °FClear.No wind30%29.47 "Hg10 mi
1:00 AM97 °FClear.3 mph30%29.47 "Hg10 mi
12:00 AM99 °FClear.No wind31%29.47 "Hg10 mi
11:00 PM
Fri, Jul 31
97 °FClear.No wind32%29.47 "Hg10 mi
10:00 PM97 °FClear.3 mph30%29.47 "Hg10 mi
9:00 PM100 °FClear.7 mph24%29.45 "Hg10 mi
8:00 PM104 °FClear.8 mph16%29.45 "Hg10 mi
7:00 PM106 °FClear.9 mph17%29.45 "Hg10 mi
6:00 PM106 °FSunny.10 mph20%29.45 "Hg10 mi
5:00 PM106 °FSunny.12 mph34%29.45 "Hg10 mi
4:30 PM109 °FSunny.10 mph16%29.45 "Hg10 mi
3:00 PM111 °FSunny.13 mph17%29.45 "Hg10 mi
2:00 PM117 °FSunny.13 mph12%29.45 "Hg10 mi
1:00 PM118 °FSunny.8 mph8%29.45 "Hg10 mi
12:00 PM117 °FSunny.10 mph10%29.47 "Hg10 mi
11:00 AM115 °FClear.8 mph18%29.47 "Hg4 mi
10:00 AM113 °FSunny.9 mph15%29.47 "Hg10 mi
9:00 AM109 °FClear.9 mph22%29.47 "Hg5 mi
8:00 AM100 °FClear.9 mph47%29.50 "Hg4 mi
7:00 AM102 °FSunny.6 mph21%29.50 "Hg10 mi
Weather by CustomWeather, © 2015

See weather overviewHow to use our weather pages